FW7395 Weather Reports


time (UTC)temp
C
wind
direction
speed
KPH
gust
KPH
rain 1hr
cm
rain 24hr
cm
rain mn
cm
humidity
%
barometer
mb
20260902153508 32 257 1.6 1.6 0.00 0.00 0.00 41 1015.4
20260902153008 32 292 0.0 1.6 0.00 0.00 0.00 42 1015.4
20260902152507 32 292 1.6 9.7 0.00 0.00 0.00 42 1015.6
20260902152008 32 219 1.6 4.8 0.00 0.00 0.00 41 1015.6
20260902151508 32 276 3.2 9.7 0.00 0.00 0.00 42 1015.7
20260902151008 32 173 0.0 1.6 0.00 0.00 0.00 43 1015.7
20260902150507 31 202 0.0 1.6 0.00 0.00 0.00 43 1015.7
20260902150008 32 248 1.6 1.6 0.00 0.00 0.00 42 1015.9
20260902145508 32 248 0.0 1.6 0.00 0.00 0.00 42 1015.8
20260902145008 31 225 0.0 1.6 0.00 0.00 0.00 44 1015.8
20260902144508 31 225 0.0 1.6 0.00 0.00 0.00 44 1015.8
20260902144008 31 248 1.6 1.6 0.00 0.00 0.00 45 1015.8
20260902143507 31 248 0.0 3.2 0.00 0.00 0.00 44 1015.8
20260902143007 31 283 0.0 3.2 0.00 0.00 0.00 43 1015.9
20260902142007 32 225 0.0 8.0 0.00 0.00 0.00 42 1016.2
20260902141507 32 234 3.2 8.0 0.00 0.00 0.00 41 1016.0
20260902141007 32 304 1.6 4.8 0.00 0.00 0.00 41 1016.0
20260902140507 32 282 3.2 8.0 0.00 0.00 0.00 41 1016.0
20260902135507 32 120 1.6 3.2 0.00 0.00 0.00 43 1016.2
20260902135008 31 248 0.0 1.6 0.00 0.00 0.00 45 1016.2
20260902134508 32 248 1.6 3.2 0.00 0.00 0.00 45 1016.2
20260902134009 32 248 1.6 4.8 0.00 0.00 0.00 42 1016.2
20260902133510 32 284 1.6 3.2 0.00 0.00 0.00 44 1016.5
20260902133011 32 202 0.0 1.6 0.00 0.00 0.00 43 1016.4
20260902132507 33 147 0.0 3.2 0.00 0.00 0.00 41 1016.4
20260902132007 33 204 1.6 4.8 0.00 0.00 0.00 40 1016.6
20260902131507 33 135 0.0 1.6 0.00 0.00 0.00 40 1016.5
20260902131008 33 292 0.0 4.8 0.00 0.00 0.00 42 1016.7
20260902130506 33 128 1.6 4.8 0.00 0.00 0.00 41 1016.8
20260902130007 33 270 1.6 1.6 0.00 0.00 0.00 42 1016.8
20260902125507 32 199 1.6 1.6 0.00 0.00 0.00 44 1016.9
20260902125007 32 155 1.6 3.2 0.00 0.00 0.00 44 1016.8
20260902124507 32 106 1.6 4.8 0.00 0.00 0.00 41 1017.0
20260902124007 32 144 1.6 4.8 0.00 0.00 0.00 43 1017.0
20260902123507 33 279 1.6 4.8 0.00 0.00 0.00 42 1016.9
20260902123007 33 274 1.6 3.2 0.00 0.00 0.00 42 1017.0
20260902122507 33 285 1.6 3.2 0.00 0.00 0.00 41 1017.1
20260902122007 32 2 1.6 4.8 0.00 0.00 0.00 44 1017.0
20260902121507 32 264 3.2 4.8 0.00 0.00 0.00 44 1017.3
20260902121008 32 248 1.6 9.7 0.00 0.00 0.00 44 1017.2
20260902120506 32 248 4.8 9.7 0.00 0.00 0.00 43 1017.2
20260902120006 32 248 0.0 3.2 0.00 0.00 0.00 42 1017.2
20260902115007 32 168 1.6 4.8 0.00 0.00 0.00 42 1017.4
20260902114507 32 158 1.6 4.8 0.00 0.00 0.00 42 1017.3
20260902114007 32 58 1.6 4.8 0.00 0.00 0.00 42 1017.6
20260902113508 32 286 1.6 4.8 0.00 0.00 0.00 41 1017.6
20260902113007 32 124 1.6 4.8 0.00 0.00 0.00 43 1017.7
20260902112507 32 135 1.6 4.8 0.00 0.00 0.00 41 1017.5
20260902112007 32 123 1.6 3.2 0.00 0.00 0.00 41 1017.7
20260902111507 32 135 1.6 4.8 0.00 0.00 0.00 42 1017.6
20260902111007 32 343 1.6 4.8 0.00 0.00 0.00 42 1017.7
20260902105506 31 176 1.6 8.0 0.00 0.00 0.00 43 1018.0
20260902105006 32 305 1.6 3.2 0.00 0.00 0.00 42 1018.1
20260902104506 32 22 1.6 4.8 0.00 0.00 0.00 40 1018.4
20260902104007 32 112 1.6 4.8 0.00 0.00 0.00 40 1018.3
20260902103507 32 179 1.6 4.8 0.00 0.00 0.00 40 1018.2
20260902103007 31 172 1.6 4.8 0.00 0.00 0.00 43 1018.3
20260902102007 31 224 0.0 3.2 0.00 0.00 0.00 44 1018.6
20260902101508 31 158 1.6 3.2 0.00 0.00 0.00 43 1018.5
20260902101009 31 80 0.0 4.8 0.00 0.00 0.00 44 1018.4
20260902095006 30 158 1.6 3.2 0.00 0.00 0.00 46 1018.7
20260902094007 30 180 0.0 1.6 0.00 0.00 0.00 47 1018.7
20260902093507 30 248 1.6 4.8 0.00 0.00 0.00 48 1018.8
20260902093006 30 134 1.6 4.8 0.00 0.00 0.00 47 1018.6
20260902092506 30 119 1.6 4.8 0.00 0.00 0.00 49 1018.8
20260902092007 30 338 0.0 3.2 0.00 0.00 0.00 49 1018.9
20260902091506 30 107 1.6 4.8 0.00 0.00 0.00 47 1018.9
20260902091007 30 26 1.6 4.8 0.00 0.00 0.00 48 1018.9
20260902090506 30 6 1.6 3.2 0.00 0.00 0.00 49 1018.8
20260902090006 30 175 1.6 4.8 0.00 0.00 0.00 48 1018.9
20260902085006 29 159 1.6 4.8 0.00 0.00 0.00 49 1018.8
20260902084507 28 180 0.0 3.2 0.00 0.00 0.00 53 1019.0
20260902084009 28 165 1.6 4.8 0.00 0.00 0.00 52 1018.8
20260902083509 28 46 1.6 4.8 0.00 0.00 0.00 52 1018.8
20260902083009 28 0 0.0 1.6 0.00 0.00 0.00 52 1018.8
20260902082506 28 121 0.0 3.2 0.00 0.00 0.00 53 1018.7
20260902082006 28 158 1.6 4.8 0.00 0.00 0.00 51 1018.8
20260902081508 27 158 0.0 3.2 0.00 0.00 0.00 53 1018.6
20260902081007 27 139 0.0 3.2 0.00 0.00 0.00 54 1018.6
20260902080506 26 68 0.0 1.6 0.00 0.00 0.00 55 1018.6
20260902075507 26 158 1.6 3.2 0.00 0.00 0.00 57 1018.7
20260902074506 26 90 0.0 1.6 0.00 0.00 0.00 57 1018.7
20260902074006 26 75 1.6 1.6 0.00 0.00 0.00 58 1018.5
20260902073509 25 60 0.0 1.6 0.00 0.00 0.00 59 1018.8
20260902073006 25 45 0.0 1.6 0.00 0.00 0.00 59 1018.6
20260902072506 25 45 0.0 4.8 0.00 0.00 0.00 61 1018.6
20260902072006 25 135 0.0 3.2 0.00 0.00 0.00 62 1018.4
20260902071507 25 45 0.0 1.6 0.00 0.00 0.00 62 1018.6
20260902071010 24 134 0.0 1.6 0.00 0.00 0.00 63 1018.4
20260902070506 24 135 1.6 3.2 0.00 0.00 0.00 64 1018.4
20260902070009 23 22 0.0 1.6 0.00 0.00 0.00 66 1018.4
20260902065507 23 22 0.0 1.6 0.00 0.00 0.00 67 1018.5
20260902065008 23 22 0.0 1.6 0.00 0.00 0.00 67 1018.2
20260902064007 23 22 0.0 1.6 0.00 0.00 0.00 68 1018.4
20260902063508 23 22 0.0 1.6 0.00 0.00 0.00 69 1018.5
20260902063008 22 4 0.0 1.6 0.00 0.00 0.00 69 1018.6
20260902062508 22 0 0.0 1.6 0.00 0.00 0.00 71 1018.5
20260902062007 22 0 0.0 1.6 0.00 0.00 0.00 71 1018.4
20260902061507 22 0 0.0 1.6 0.00 0.00 0.00 73 1018.3
20260902061007 21 0 0.0 1.6 0.00 0.00 0.00 73 1018.3
20260902060507 21 0 0.0 1.6 0.00 0.00 0.00 77 1018.4
20260902060007 21 0 0.0 1.6 0.00 0.00 0.00 77 1018.3
20260902055007 21 0 0.0 1.6 0.00 0.00 0.00 77 1018.2
20260902054507 21 0 0.0 1.6 0.00 0.00 0.00 78 1018.2
20260902054008 20 0 0.0 1.6 0.00 0.00 0.00 79 1018.1
20260902053509 20 0 0.0 1.6 0.00 0.00 0.00 78 1018.0
20260902053007 20 0 0.0 1.6 0.00 0.00 0.00 78 1018.0
20260902052507 20 0 0.0 1.6 0.00 0.00 0.00 78 1018.0
20260902052007 20 0 0.0 1.6 0.00 0.00 0.00 78 1017.8
20260902051507 20 0 0.0 1.6 0.00 0.00 0.00 79 1017.9
20260902051007 20 0 0.0 0.0 0.00 0.00 0.00 81 1017.8
20260902050506 20 0 0.0 0.0 0.00 0.00 0.00 81 1017.9
20260902050008 20 0 0.0 0.0 0.00 0.00 0.00 80 1017.8
20260902045508 20 0 0.0 0.0 0.00 0.00 0.00 81 1017.8
20260902045007 20 0 0.0 1.6 0.00 0.00 0.00 81 1017.9
20260902044008 20 0 0.0 1.6 0.00 0.00 0.00 81 1017.7
20260902043508 20 0 0.0 1.6 0.00 0.00 0.00 81 1017.6
20260902043007 20 0 0.0 1.6 0.00 0.00 0.00 81 1017.8
20260902042509 20 0 0.0 1.6 0.00 0.00 0.00 81 1017.6
20260902042008 20 0 0.0 1.6 0.00 0.00 0.00 81 1017.5
20260902041507 20 0 0.0 0.0 0.00 0.00 0.00 81 1017.8
20260902041008 20 0 0.0 1.6 0.00 0.00 0.00 81 1017.6
20260902040007 20 0 0.0 1.6 0.00 0.00 0.00 81 1017.7
20260902035507 20 0 0.0 1.6 0.00 0.00 0.00 81 1017.9
20260902035009 20 0 0.0 1.6 0.00 0.00 0.00 81 1017.7
20260902034508 20 0 0.0 1.6 0.00 0.00 0.00 81 1017.7
20260902034007 20 0 0.0 1.6 0.00 0.00 0.00 81 1017.6
20260902033507 20 0 0.0 1.6 0.00 0.00 0.00 80 1017.7
20260902033007 20 0 0.0 0.0 0.00 0.00 0.00 80 1017.7
20260902032509 20 0 0.0 0.0 0.00 0.00 0.00 80 1017.7
20260902032008 20 0 0.0 0.0 0.00 0.00 0.00 80 1017.8
20260902031507 20 0 0.0 0.0 0.00 0.00 0.00 80 1017.7
20260902031007 20 0 0.0 1.6 0.00 0.00 0.00 80 1017.7
20260902030506 20 0 0.0 1.6 0.00 0.00 0.00 80 1017.7
20260902030013 20 0 0.0 1.6 0.00 0.00 0.00 80 1017.6
20260902025510 20 0 0.0 1.6 0.00 0.00 0.00 80 1017.6
20260902025008 20 0 0.0 1.6 0.00 0.00 0.00 80 1017.6
20260902024507 20 0 0.0 0.0 0.00 0.00 0.00 79 1017.5
20260902024007 21 0 0.0 0.0 0.00 0.00 0.00 79 1017.5
20260902022506 21 0 0.0 1.6 0.00 0.00 0.00 79 1017.6
20260902022007 21 0 0.0 0.0 0.00 0.00 0.00 78 1017.5
20260902021007 21 0 0.0 0.0 0.00 0.00 0.00 79 1017.6
20260902020507 21 0 0.0 1.6 0.00 0.00 0.00 79 1017.3
20260902015506 21 0 0.0 0.0 0.00 0.00 0.00 78 1017.4
20260902015006 21 0 0.0 0.0 0.00 0.00 0.00 79 1017.5
20260902014508 21 0 0.0 0.0 0.00 0.00 0.00 79 1017.4
20260902014007 21 0 0.0 0.0 0.00 0.00 0.00 79 1017.4
20260902013507 21 0 0.0 0.0 0.00 0.00 0.00 79 1017.2
20260902013007 21 0 0.0 1.6 0.00 0.00 0.00 79 1017.6
20260902012507 21 0 0.0 1.6 0.00 0.00 0.00 79 1017.4
20260902012008 21 0 0.0 1.6 0.00 0.00 0.00 79 1017.5
20260902011507 21 0 0.0 1.6 0.00 0.00 0.00 79 1017.5
20260902011007 21 0 0.0 1.6 0.00 0.00 0.00 79 1017.5
20260902010506 21 0 0.0 1.6 0.00 0.00 0.00 79 1017.5
20260902010006 21 0 0.0 1.6 0.00 0.00 0.00 79 1017.6
20260902005506 21 0 0.0 1.6 0.00 0.00 0.00 79 1017.5
20260902005007 21 0 0.0 1.6 0.00 0.00 0.00 79 1017.6
20260902004007 21 0 0.0 1.6 0.00 0.00 0.00 79 1017.5
20260902003507 21 0 0.0 1.6 0.00 0.00 0.00 78 1017.4
20260902003007 21 0 0.0 1.6 0.00 0.00 0.00 78 1017.4
20260902002506 21 0 0.0 1.6 0.00 0.00 0.00 78 1017.2
20260902002010 22 0 0.0 1.6 0.00 0.00 0.00 79 1017.2
20260902001506 22 0 0.0 1.6 0.00 0.00 0.00 79 1017.4
20260902001007 21 0 0.0 1.6 0.00 0.00 0.00 79 1017.2
20260902000506 22 0 0.0 1.6 0.00 0.00 0.00 79 1017.2
20260902000007 22 0 0.0 1.6 0.00 0.00 0.00 79 1017.4
20260901235506 22 0 0.0 0.0 0.00 0.00 0.00 79 1017.4
20260901235007 22 0 0.0 0.0 0.00 0.00 0.00 79 1017.4
20260901234007 22 0 0.0 0.0 0.00 0.00 0.00 79 1017.4
20260901232506 22 0 0.0 0.0 0.00 0.00 0.00 79 1017.4
20260901231506 22 0 0.0 0.0 0.00 0.00 0.00 78 1017.2
20260901231008 22 0 0.0 0.0 0.00 0.00 0.00 78 1017.4
20260901230506 22 0 0.0 1.6 0.00 0.00 0.00 78 1017.2
20260901230008 22 0 0.0 1.6 0.00 0.00 0.00 77 1017.3
20260901225508 22 0 0.0 1.6 0.00 0.00 0.00 77 1017.3
20260901225006 22 0 0.0 0.0 0.00 0.00 0.00 77 1017.3
20260901224506 22 0 0.0 0.0 0.00 0.00 0.00 77 1017.4
20260901224006 22 0 0.0 0.0 0.00 0.00 0.00 77 1017.3
20260901223508 22 0 0.0 0.0 0.00 0.00 0.00 77 1017.3
20260901222006 22 0 0.0 0.0 0.00 0.00 0.00 76 1017.3
20260901221507 22 0 0.0 0.0 0.00 0.00 0.00 76 1017.1
20260901221008 22 0 0.0 0.0 0.00 0.00 0.00 75 1017.3
20260901220510 22 0 0.0 0.0 0.00 0.00 0.00 75 1017.2
20260901220007 23 0 0.0 0.0 0.00 0.00 0.00 75 1017.2
20260901215013 23 0 0.0 1.6 0.00 0.00 0.00 75 1017.3
20260901214510 23 0 0.0 0.0 0.00 0.00 0.00 74 1017.2
20260901214008 23 0 0.0 0.0 0.00 0.00 0.00 74 1017.0
20260901213008 23 0 0.0 1.6 0.00 0.00 0.00 72 1017.2
20260901211508 23 0 0.0 1.6 0.00 0.00 0.00 72 1017.2
20260901211009 24 0 0.0 0.0 0.00 0.00 0.00 72 1017.2
20260901210507 24 0 0.0 1.6 0.00 0.00 0.00 71 1017.2
20260901210007 24 0 0.0 0.0 0.00 0.00 0.00 70 1017.2
20260901205508 24 0 0.0 0.0 0.00 0.00 0.00 69 1017.2
20260901204507 25 0 0.0 1.6 0.00 0.00 0.00 69 1017.2
20260901204008 24 0 0.0 1.6 0.00 0.00 0.00 69 1017.2
20260901203510 24 0 0.0 0.0 0.00 0.00 0.00 69 1017.3
20260901202507 24 0 0.0 0.0 0.00 0.00 0.00 68 1017.1
20260901202008 24 0 0.0 0.0 0.00 0.00 0.00 68 1017.1
20260901201507 25 0 0.0 0.0 0.00 0.00 0.00 68 1017.1
20260901201007 25 0 0.0 1.6 0.00 0.00 0.00 67 1017.3
20260901200506 25 0 0.0 1.6 0.00 0.00 0.00 67 1016.9
20260901195507 25 0 0.0 0.0 0.00 0.00 0.00 66 1017.0
20260901195008 25 0 0.0 1.6 0.00 0.00 0.00 65 1016.9
20260901194507 26 0 0.0 1.6 0.00 0.00 0.00 64 1016.9
20260901194008 26 0 0.0 1.6 0.00 0.00 0.00 63 1016.8
20260901193507 26 0 0.0 1.6 0.00 0.00 0.00 63 1016.9
20260901193007 26 0 0.0 1.6 0.00 0.00 0.00 62 1016.7
20260901192508 26 0 0.0 1.6 0.00 0.00 0.00 62 1016.9
20260901192008 26 0 0.0 1.6 0.00 0.00 0.00 62 1016.8
20260901191507 26 0 0.0 1.6 0.00 0.00 0.00 62 1016.8
20260901191007 26 0 0.0 1.6 0.00 0.00 0.00 62 1016.7
20260901185507 26 22 0.0 1.6 0.00 0.00 0.00 63 1016.4
20260901185007 26 22 0.0 1.6 0.00 0.00 0.00 62 1016.2
20260901184508 26 22 0.0 1.6 0.00 0.00 0.00 62 1016.1
20260901184007 26 22 0.0 1.6 0.00 0.00 0.00 61 1016.0
20260901183507 27 45 0.0 1.6 0.00 0.00 0.00 60 1016.0
20260901183008 27 45 0.0 1.6 0.00 0.00 0.00 60 1016.0
20260901182507 27 45 0.0 1.6 0.00 0.00 0.00 60 1016.0
20260901182007 27 45 0.0 1.6 0.00 0.00 0.00 60 1016.0
20260901181508 27 21 0.0 1.6 0.00 0.00 0.00 60 1015.9
20260901181010 27 45 0.0 1.6 0.00 0.00 0.00 59 1015.8
20260901180506 27 0 0.0 1.6 0.00 0.00 0.00 59 1015.8
20260901180007 27 22 0.0 1.6 0.00 0.00 0.00 59 1015.6
20260901175007 28 341 0.0 1.6 0.00 0.00 0.00 58 1015.6
20260901174507 28 338 0.0 1.6 0.00 0.00 0.00 58 1015.6
20260901174008 28 338 0.0 1.6 0.00 0.00 0.00 57 1015.6
20260901173507 28 338 0.0 1.6 0.00 0.00 0.00 56 1015.6
20260901172007 30 22 0.0 1.6 0.00 0.00 0.00 53 1015.3
20260901171507 30 22 0.0 1.6 0.00 0.00 0.00 52 1015.5
20260901171007 30 0 0.0 1.6 0.00 0.00 0.00 52 1015.4
20260901170506 31 22 0.0 1.6 0.00 0.00 0.00 51 1015.2
20260901170008 31 15 1.6 3.2 0.00 0.00 0.00 50 1015.3
20260901165007 31 53 1.6 3.2 0.00 0.00 0.00 49 1015.2
20260901164506 31 20 1.6 4.8 0.00 0.00 0.00 48 1015.3
20260901164007 31 98 0.0 3.2 0.00 0.00 0.00 48 1015.4
20260901162506 31 0 1.6 4.8 0.00 0.00 0.00 49 1015.4
20260901161507 31 73 1.6 4.8 0.00 0.00 0.00 50 1015.2
20260901161007 31 22 0.0 1.6 0.00 0.00 0.00 51 1015.2
20260901160506 31 8 0.0 1.6 0.00 0.00 0.00 51 1015.4
20260901160007 31 55 0.0 3.2 0.00 0.00 0.00 50 1015.4
20260901155507 31 114 0.0 1.6 0.00 0.00 0.00 50 1015.3
20260901155007 31 193 0.0 9.7 0.00 0.00 0.00 48 1015.4
20260901154507 32 165 1.6 9.7 0.00 0.00 0.00 47 1015.3